Retour au catalogue

STARLINK-11447

ActifCommunicationsVLEO
NORAD 62418·PAYLOAD·🇺🇸 United States

Lancé Dec 23, 2024 depuis Cape Canaveral Space Force Station

Loading…

Prochains Passages (prochaines 24 heures)

TLE

FraisSource: CelesTrak SupGP

Époque: Sep 14, 2026, 21:17 UTC

1 62418C 24249K   26257.88729167 -.00030868  00000+0 -23992-3 0  2573
2 62418  43.0003 106.8711 0001548 274.7584 334.4905 15.70837398    12

Suivez STARLINK-11447 en temps réel avec AllMySat

Download on the App Store